Wind_Speed
24 24 26 27 26 19 11 8 8 7 4 4 5 6 7 8 12 14 15 18 18 15 18 19 15 19 20 18 24 26 24 21 22 22 23 21 18 16 11 3 18 15 18 19
24 25 20 14 9 8 7 7 6 7 6 6 7 8 10 10 13 14 17 16 18 21 19 16 16 15 17 16 18 22 23 22 23 25 25 25 18 17 16 9 17 19 16 12
15 11 10 9 10 8 7 6 8 8 7 9 9 12 14 15 16 13 15 17 17 20 22 18 18 14 15 13 16 21 22 24 25 27 27 28 23 19 17 16 26 14 14 13
13 12 13 11 8 4 4 5 7 9 12 13 14 12 14 20 18 19 22 19 20 16 20 19 18 17 15 11 11 21 21 23 29 29 27 28 26 22 23 21 20 19 18 11
14 12 10 8 5 6 9 11 12 15 17 19 20 18 13 16 23 19 21 23 16 14 16 22 18 15 18 14 11 18 23 26 28 28 30 29 27 26 28 22 19 19 19 13
10 8 7 8 9 11 13 17 18 20 20 22 26 22 15 16 18 20 21 25 26 19 18 21 23 20 15 18 15 15 22 28 29 29 30 31 29 27 32 23 26 18 23 20
10 9 10 12 13 16 17 19 22 24 26 27 29 29 28 26 22 21 20 23 27 24 22 22 22 21 22 18 17 18 18 29 35 30 29 32 30 27 35 29 28 32 27 24
13 8 16 19 16 21 22 24 27 30 31 30 35 33 35 33 29 23 23 28 29 26 27 23 24 20 23 24 20 21 20 23 30 31 34 32 32 28 33 31 33 35 30 28
18 17 19 24 27 28 29 31 32 33 36 36 41 35 36 36 37 28 24 27 28 27 30 32 24 24 19 26 27 22 26 23 25 31 38 38 35 33 29 22 30 35 34 27
22 26 25 27 29 36 34 34 35 35 36 38 41 41 40 43 40 36 31 33 31 25 27 28 7 29 14 20 30 26 27 26 26 30 38 41 39 39 23 20 21 25 33 29
26 29 29 30 31 33 35 37 40 41 42 42 46 42 47 49 49 37 33 37 37 23 22 31 28 21 24 20 26 29 26 31 28 31 38 40 41 44 33 24 22 29 30 30
32 33 35 38 39 41 37 38 43 43 44 47 49 52 53 52 48 41 36 22 39 40 30 31 18 3 40 26 29 29 30 30 33 28 40 42 42 45 41 41 29 29 31 27
37 39 38 40 44 47 45 46 48 48 49 50 53 59 62 52 52 49 43 37 43 42 36 31 23 20 21 32 42 30 31 33 39 36 37 44 45 44 46 49 39 35 34 32
44 45 46 45 48 54 53 54 56 56 56 56 59 64 69 60 56 55 49 46 44 45 42 39 34 34 37 38 39 25 30 37 41 44 39 44 46 45 46 47 44 38 36 36
49 53 52 53 55 57 61 62 63 62 61 60 58 61 69 59 56 51 50 45 43 45 47 45 39 27 34 40 33 34 32 36 44 48 45 45 45 47 45 46 44 42 36 33
50 51 56 60 63 62 63 65 65 63 61 59 58 62 61 62 59 49 45 46 46 47 51 54 39 31 38 38 41 37 39 40 47 50 51 49 47 49 48 41 39 39 42 36
58 61 63 62 65 63 61 62 62 63 66 64 65 67 68 65 62 61 56 48 50 55 57 60 47 35 41 40 41 42 44 39 47 52 54 53 51 49 50 48 36 42 39 44
67 67 67 63 62 61 66 66 67 66 70 67 71 71 75 74 71 69 67 62 55 55 57 60 60 51 44 43 42 44 46 46 47 53 53 56 55 56 51 48 44 41 37 38
67 64 65 65 66 65 69 68 71 73 74 71 71 76 74 74 76 75 71 66 64 59 58 63 64 57 50 47 43 42 47 51 44 57 56 56 56 58 57 53 50 45 42 42
62 62 65 69 70 72 73 73 72 76 80 76 76 75 76 80 84 79 75 72 66 61 61 64 64 58 53 50 46 41 44 52 47 56 59 56 56 55 59 59 53 46 47 44
67 66 67 69 73 75 71 73 78 78 78 76 70 69 65 68 75 78 75 70 71 69 67 66 65 57 53 49 46 43 43 52 48 54 60 58 58 56 54 54 55 50 48 42
68 70 72 74 77 81 79 78 80 74 62 55 52 52 53 53 54 57 62 62 63 64 63 63 62 55 52 49 45 44 46 52 50 54 62 61 59 57 53 47 44 44 46 45
72 70 71 76 80 85 80 71 60 53 50 45 42 42 41 41 41 41 42 48 52 54 55 57 57 54 51 50 45 44 49 51 54 59 65 63 58 53 52 45 37 37 36 42
75 77 77 79 79 67 65 50 42 38 40 42 44 42 40 36 35 35 35 39 43 45 49 51 52 52 51 49 44 46 49 55 57 59 67 63 57 54 50 45 40 31 29 39
77 78 74 65 53 47 44 40 39 38 38 38 39 41 43 41 39 38 39 41 44 48 49 51 54 54 51 48 45 50 53 56 59 63 68 63 59 53 45 40 31 28 26 29
73 65 54 44 35 32 40 41 40 38 40 41 41 43 44 44 45 45 42 43 47 48 49 49 51 49 51 52 49 54 57 57 62 70 68 62 60 54 44 38 32 32 29 33
Wind_Direction
270 274 276 277 279 271 253 239 248 246 245 240 271 305 320 319 321 334 340 348 351 336 323 318 297 287 286 266 232 225 221 226 230 206 197 207 196 181 167 216 194 171 170 162
270 272 269 258 233 212 206 209 226 247 265 289 313 315 316 323 325 333 335 347 349 344 352 326 327 303 294 290 242 229 224 220 220 201 197 199 192 179 174 193 172 179 175 184
247 226 204 200 208 197 199 210 236 259 280 291 307 311 316 316 311 320 323 338 343 344 342 352 329 325 299 291 243 237 228 217 208 200 200 193 198 200 178 153 162 178 184 205
189 189 199 208 221 210 191 246 273 289 288 291 296 298 300 303 311 321 323 338 337 336 330 335 340 319 312 282 238 233 235 218 210 201 200 195 193 198 183 167 171 184 177 199
191 201 213 226 254 279 290 283 287 287 289 294 289 294 299 290 300 316 316 317 320 327 330 324 325 333 312 294 249 230 224 221 216 208 201 196 193 194 182 175 176 187 203 202
211 222 244 267 276 284 289 295 296 296 298 297 293 293 298 288 293 301 313 315 318 329 325 323 320 318 321 293 266 236 222 212 210 207 203 199 194 193 194 190 182 185 200 214
215 228 258 264 277 282 287 293 296 299 298 299 298 303 305 300 295 298 300 300 308 321 330 333 320 311 306 298 283 249 236 219 213 212 206 202 198 186 202 194 197 198 208 213
235 244 270 269 272 281 288 287 292 295 295 297 296 303 302 304 305 302 310 303 308 320 318 326 323 312 302 298 280 260 240 234 218 217 211 208 198 187 204 201 207 210 216 221
261 261 265 277 285 280 284 288 291 293 297 295 294 292 292 299 296 297 294 300 305 309 318 321 319 323 300 300 288 275 250 237 220 214 208 207 196 183 186 211 219 223 224 222
270 272 269 274 283 286 281 283 288 290 291 291 293 297 297 292 291 301 306 294 293 304 313 312 252 295 301 283 289 267 263 243 234 215 198 201 201 179 196 201 212 222 218 222
279 281 282 285 282 282 284 293 295 291 291 290 290 294 283 287 296 301 298 298 296 300 308 290 291 298 310 270 276 265 252 250 233 215 203 203 203 194 181 176 185 216 218 228
289 291 293 292 290 286 291 290 286 289 290 291 290 285 284 290 292 294 294 307 289 282 294 292 277 250 302 276 254 268 252 242 233 225 209 208 209 205 194 197 209 207 208 217
288 289 291 291 292 291 290 290 288 288 288 287 286 285 287 286 287 286 284 275 271 276 288 283 262 251 233 267 261 248 255 238 233 228 215 211 214 208 202 202 211 220 221 217
289 290 291 292 292 292 291 289 286 285 284 282 282 281 281 282 282 282 281 283 287 285 288 283 263 259 248 268 259 242 250 240 230 229 221 215 216 214 211 214 214 218 218 224
292 292 292 292 291 291 293 292 290 288 287 285 282 281 279 285 282 287 288 284 279 278 277 274 267 266 275 277 272 256 252 239 234 228 225 218 219 219 216 215 222 225 227 225
288 289 291 293 292 292 291 290 289 288 286 284 284 281 282 283 285 283 278 277 276 271 270 267 262 264 254 255 261 252 247 246 229 228 224 224 219 219 217 214 219 223 222 227
289 289 290 291 291 292 290 289 289 287 287 287 284 283 282 283 281 281 275 268 263 264 262 266 268 259 251 244 246 252 240 240 235 225 224 222 223 218 220 217 228 225 225 228
291 293 292 292 291 292 289 289 289 289 286 286 284 281 280 279 276 272 268 268 264 266 270 271 271 262 252 245 233 245 247 234 232 225 225 222 224 222 219 222 224 224 230 229
293 293 293 293 293 291 289 291 291 289 286 284 283 281 279 276 273 269 269 265 263 259 258 264 269 272 266 258 248 246 246 239 228 224 221 222 221 225 222 221 223 226 229 227
292 292 293 294 294 292 292 292 291 288 288 287 280 276 273 271 270 268 265 264 262 261 259 261 266 265 263 258 252 245 241 240 228 218 215 219 217 223 223 221 225 230 232 234
294 293 293 293 293 289 288 290 292 291 289 289 286 280 273 268 266 267 266 261 259 260 260 260 261 258 256 253 250 240 237 239 225 214 210 215 215 219 223 224 229 234 226 230
296 298 298 297 295 293 295 298 293 291 289 283 280 280 280 276 269 264 262 258 255 253 254 254 256 256 254 250 245 242 235 232 219 209 205 210 213 216 221 226 231 227 222 228
301 300 297 297 296 296 296 292 291 288 286 286 282 282 280 278 273 265 262 257 251 249 249 251 251 252 250 246 241 236 231 224 216 205 203 205 207 209 216 225 214 214 222 230
302 301 301 299 297 293 291 291 286 284 284 285 285 283 280 277 274 270 261 253 251 245 243 246 248 248 246 244 238 233 224 219 212 201 200 202 203 207 204 206 210 214 224 233
303 302 301 298 297 294 291 293 291 289 284 281 283 285 285 280 273 266 261 257 253 252 247 242 243 245 245 241 228 224 221 215 208 195 196 198 198 202 197 192 205 221 227 232
305 303 300 298 297 291 293 294 291 289 289 290 287 283 280 278 277 276 268 260 257 255 253 251 245 241 239 237 222 218 216 209 200 189 193 194 196 191 188 189 194 211 238 244
Height
10950 10949 10948 10948 10948 10948 10947 10946 10946 10946 10947 10947 10947 10948 10947 10946 10944 10942 10940 10939 10935 10933 10931 10926 10929 10924 10922 10925 10927 10930 10938 10940 10944 10947 10952 10955 10960 10961 10962 10965 10967 10970 10971 10971
10945 10944 10943 10943 10944 10944 10944 10945 10945 10944 10944 10945 10946 10945 10944 10943 10941 10940 10937 10938 10936 10931 10932 10930 10929 10923 10920 10921 10922 10926 10932 10935 10938 10941 10947 10952 10957 10958 10960 10962 10965 10969 10971 10973
10939 10940 10940 10940 10941 10942 10943 10944 10943 10943 10943 10942 10943 10942 10940 10939 10937 10937 10935 10934 10933 10930 10927 10928 10924 10924 10919 10920 10920 10923 10928 10931 10934 10938 10943 10948 10954 10956 10958 10959 10964 10969 10968 10970
10936 10937 10937 10938 10940 10941 10943 10942 10942 10941 10941 10940 10940 10940 10939 10935 10934 10932 10931 10932 10931 10930 10925 10924 10921 10919 10919 10918 10920 10919 10924 10927 10931 10934 10940 10946 10952 10954 10956 10958 10961 10965 10966 10968
10933 10934 10936 10937 10937 10938 10937 10938 10938 10937 10937 10935 10934 10934 10936 10934 10929 10931 10928 10926 10927 10927 10925 10919 10920 10917 10914 10915 10917 10919 10922 10925 10927 10932 10936 10943 10947 10950 10954 10955 10957 10961 10964 10966
10932 10933 10933 10933 10934 10934 10934 10932 10932 10931 10931 10930 10926 10927 10932 10930 10929 10926 10924 10920 10920 10924 10924 10920 10918 10916 10915 10912 10912 10914 10916 10921 10925 10929 10934 10938 10941 10945 10949 10952 10955 10958 10961 10965
10930 10931 10930 10930 10930 10930 10929 10928 10927 10926 10924 10922 10919 10919 10919 10919 10920 10919 10921 10915 10914 10920 10923 10921 10918 10917 10913 10911 10910 10909 10911 10915 10921 10925 10930 10934 10937 10941 10944 10947 10952 10953 10958 10965
10926 10929 10925 10925 10928 10925 10925 10924 10922 10919 10918 10917 10912 10914 10908 10910 10912 10913 10913 10909 10912 10916 10910 10911 10909 10910 10910 10912 10910 10908 10907 10909 10913 10919 10924 10929 10932 10937 10941 10945 10946 10951 10956 10961
10922 10924 10924 10921 10919 10919 10919 10917 10915 10914 10909 10907 10901 10908 10905 10905 10901 10907 10908 10907 10910 10911 10906 10905 10903 10908 10908 10908 10909 10909 10906 10905 10908 10911 10917 10923 10928 10933 10939 10941 10943 10948 10952 10956
10918 10916 10917 10917 10914 10908 10911 10910 10908 10906 10904 10898 10893 10895 10893 10888 10892 10896 10900 10899 10903 10908 10905 10902 10906 10903 10896 10901 10905 10905 10902 10904 10904 10906 10909 10916 10922 10931 10935 10937 10938 10942 10947 10951
10910 10909 10909 10908 10907 10905 10903 10902 10897 10895 10893 10891 10883 10888 10876 10878 10881 10892 10893 10889 10890 10905 10904 10890 10893 10884 10885 10890 10898 10898 10895 10898 10900 10901 10906 10911 10916 10922 10929 10931 10933 10936 10942 10945
10901 10901 10899 10897 10894 10892 10897 10893 10888 10887 10883 10879 10874 10866 10867 10869 10872 10878 10880 10881 10874 10890 10901 10889 10883 10880 10881 10885 10884 10890 10888 10889 10895 10896 10899 10904 10910 10914 10919 10923 10927 10930 10936 10942
10894 10892 10894 10889 10884 10882 10884 10882 10877 10875 10872 10869 10861 10849 10844 10862 10858 10860 10869 10870 10868 10875 10886 10884 10878 10878 10874 10885 10881 10873 10880 10880 10886 10891 10893 10897 10902 10907 10911 10916 10922 10926 10930 10935
10884 10881 10881 10880 10875 10866 10869 10867 10863 10861 10860 10857 10849 10838 10830 10844 10850 10851 10856 10856 10856 10858 10866 10868 10862 10863 10865 10868 10867 10864 10871 10870 10875 10884 10885 10889 10894 10901 10906 10910 10916 10919 10925 10930
10870 10867 10868 10866 10862 10856 10850 10847 10843 10841 10840 10838 10836 10827 10804 10829 10834 10837 10838 10843 10847 10845 10846 10849 10852 10849 10851 10846 10848 10856 10858 10862 10867 10874 10878 10880 10886 10892 10898 10903 10909 10915 10918 10924
10864 10860 10853 10849 10844 10843 10838 10829 10825 10825 10822 10821 10818 10805 10807 10805 10814 10827 10828 10826 10826 10826 10823 10827 10834 10843 10838 10836 10838 10845 10850 10852 10857 10862 10865 10872 10877 10883 10889 10898 10904 10909 10913 10918
10847 10843 10840 10838 10829 10825 10818 10814 10812 10808 10802 10804 10799 10791 10789 10793 10795 10796 10802 10811 10809 10803 10802 10801 10814 10826 10825 10829 10833 10833 10840 10843 10844 10849 10853 10860 10868 10874 10881 10890 10896 10902 10906 10912
10828 10824 10819 10816 10810 10808 10798 10797 10793 10793 10785 10786 10776 10774 10766 10768 10772 10774 10778 10782 10790 10790 10787 10783 10784 10797 10805 10810 10819 10822 10818 10826 10829 10834 10841 10849 10858 10865 10872 10880 10886 10892 10898 10904
10810 10804 10799 10796 10791 10787 10779 10781 10774 10766 10761 10765 10758 10748 10748 10746 10740 10742 10746 10759 10764 10770 10775 10765 10764 10772 10780 10788 10795 10801 10802 10805 10814 10819 10827 10836 10845 10853 10861 10870 10878 10885 10892 10897
10796 10790 10784 10777 10770 10762 10759 10756 10752 10743 10735 10739 10732 10728 10721 10714 10708 10716 10721 10725 10735 10744 10751 10751 10751 10756 10761 10766 10771 10780 10782 10785 10797 10805 10815 10825 10833 10841 10850 10860 10869 10877 10884 10891
10774 10773 10768 10760 10749 10740 10740 10739 10727 10719 10711 10703 10696 10691 10694 10690 10685 10685 10690 10704 10710 10717 10722 10724 10727 10736 10741 10747 10752 10760 10767 10770 10781 10794 10806 10815 10823 10831 10841 10851 10862 10869 10876 10883
10759 10753 10744 10734 10721 10709 10714 10711 10695 10689 10687 10680 10675 10670 10667 10666 10666 10666 10666 10673 10683 10691 10697 10700 10704 10714 10719 10726 10733 10739 10746 10751 10764 10778 10788 10802 10813 10824 10836 10846 10854 10861 10868 10872
10740 10735 10726 10713 10699 10686 10683 10680 10673 10665 10661 10661 10659 10655 10653 10652 10650 10650 10653 10654 10660 10669 10675 10680 10685 10691 10698 10704 10713 10720 10727 10737 10747 10761 10775 10788 10803 10814 10827 10838 10847 10855 10860 10861
10716 10707 10700 10689 10675 10667 10652 10658 10656 10653 10649 10645 10641 10640 10639 10641 10639 10639 10639 10641 10644 10652 10657 10662 10667 10673 10680 10686 10695 10701 10711 10719 10733 10748 10765 10780 10795 10807 10817 10827 10839 10848 10851 10857
10700 10686 10675 10664 10658 10647 10641 10641 10640 10639 10636 10633 10631 10628 10625 10625 10625 10626 10626 10628 10630 10633 10638 10644 10648 10654 10660 10666 10676 10683 10692 10704 10719 10737 10754 10770 10783 10802 10814 10826 10837 10846 10850 10853
10676 10665 10656 10649 10645 10641 10632 10630 10627 10625 10621 10619 10619 10615 10612 10610 10608 10607 10609 10612 10613 10615 10619 10623 10629 10638 10643 10648 10658 10667 10675 10691 10706 10725 10744 10762 10778 10789 10807 10820 10832 10841 10848 10848